This demonstration page uses our WeatherBlox Daily Observations layout. Learn more.

Left ArrowRight Arrow

Hourly Observations for March 9, 2018

Temp ( °F °C ) Dew Point ( °F °C ) Humidity (%) Winds ( mph kmh ) Pressure ( in mb ) Visibility ( mi km ) Precip ( " mm )
12:59 am 00:59 Mostly Cloudy 40 4.4 17 -8.3 40 40 NW 18 30 29.91 1013 10 16 0.00 0.00
1:59 am 01:59 Mostly Clear 37 2.8 14 -10 39 39 NW 17 28 29.92 1013 10 16 0.00 0.00
2:59 am 02:59 Mostly Clear 36 2.2 16 -8.9 44 44 NW 14 22 29.92 1013 10 16 0.00 0.00
3:59 am 03:59 Clear 35 1.7 15 -9.4 44 44 NW 13 20 29.93 1014 10 16 0.00 0.00
4:59 am 04:59 Clear 34 1.1 20 -6.7 56 56 W 8 13 29.95 1014 10 16 0.00 0.00
5:59 am 05:59 Clear 34 1.1 20 -6.7 56 56 W 12 19 29.96 1015 10 16 0.00 0.00
6:59 am 06:59 Mostly Sunny 34 1.1 18 -7.8 52 52 WNW 15 24 29.98 1015 10 16 0.00 0.00
7:59 am 07:59 Sunny 36 2.2 18 -7.8 48 48 WNW 15 24 30.00 1016 10 16 0.00 0.00
8:59 am 08:59 Sunny 38 3.3 18 -7.8 44 44 W 15 24 30.01 1016 10 16 0.00 0.00
9:59 am 09:59 Sunny 40 4.4 17 -8.3 40 40 W 15 24 30.00 1016 10 16 0.00 0.00
10:59 am 10:59 Sunny 42 5.6 16 -8.9 35 35 W 13 20 30.00 1016 10 16 0.00 0.00
11:59 am 11:59 Sunny 44 6.7 17 -8.3 34 34 W 13 20 29.99 1016 10 16 0.00 0.00
12:59 pm 12:59 Mostly Sunny 46 7.8 18 -7.8 32 32 WSW 12 19 29.96 1015 10 16 0.00 0.00
1:59 pm 13:59 Mostly Sunny 47 8.3 17 -8.3 30 30 WNW 13 20 29.95 1014 10 16 0.00 0.00
2:59 pm 14:59 Mostly Sunny 48 8.9 17 -8.3 29 29 W 12 19 29.94 1014 10 16 0.00 0.00
3:59 pm 15:59 Mostly Sunny 48 8.9 17 -8.3 29 29 W 13 20 29.94 1014 10 16 0.00 0.00
4:59 pm 16:59 Partly Cloudy 47 8.3 16 -8.9 29 29 W 13 20 29.95 1014 10 16 0.00 0.00
5:59 pm 17:59 Mostly Sunny 46 7.8 17 -8.3 31 31 W 10 17 29.98 1015 10 16 0.00 0.00
6:59 pm 18:59 Mostly Clear 45 7.2 17 -8.3 33 33 W 9 15 29.99 1016 10 16 0.00 0.00
7:59 pm 19:59 Clear 38 3.3 22 -5.6 52 52 SW 5 7 30.00 1016 10 16 0.00 0.00
8:59 pm 20:59 Clear 37 2.8 23 -5 57 57 SSW 3 6 30.01 1016 10 16 0.00 0.00
9:59 pm 21:59 Clear 36 2.2 23 -5 59 59 Calm 30.02 1017 10 16 0.00 0.00
10:59 pm 22:59 Clear 34 1.1 24 -4.4 67 67 WSW 3 6 30.03 1017 10 16 0.00 0.00
11:59 pm 23:59 Clear 39 3.9 24 -4.4 55 55 N 8 13 30.06 1018 10 16 0.00 0.00

Powered by AerisWeather